Location: Bailleul
(50.3375°N, 2.8513°E)
Time: 16:29:09
(UTC+00:00)

COSMOS 2428 - Pass Details

Date: 19 April 2021
Orbit: 844 x 859 km, 70.9° (Epoch: 06 May)

Event Time Altitude Azimuth Distance (km) Brightness Sun altitude
Rises 20:24:45 0° 325° (NW) 3,443 7.4 -14.1°
Reaches altitude 10° 20:27:23 10° 317° (NW) 2,503 6.5 -14.4°
Maximum altitude 20:32:35 36° 253° (WSW) 1,323 4.0 -15.0°
Drops below altitude 10° 20:37:46 10° 188° (S) 2,488 4.8 -15.6°
Enters shadow 20:38:35 - 185° (S) 2,777 5.0 -15.7°
